Location: St. Louis
(38.6270°N, 90.1994°W)
Time: 11:50:59
(UTC-06:00)

Transit 4A - All Passes

Search period start: 30 November 2021 00:00
Search period end: 10 December 2021 00:00
Orbit: 866 x 978 km, 66.8° (Epoch: 29 November)

Date Brightness Start Highest point End Pass type
(mag) Time Alt. Az. Time Alt. Az. Time Alt. Az.
30 Nov - 03:33:14 10° N 03:37:27 18° NE 03:41:43 10° E visible
30 Nov - 05:18:18 10° NNW 05:24:37 88° WSW 05:31:01 10° SSE visible
30 Nov - 07:07:31 10° WNW 07:10:06 13° WSW 07:12:42 10° SW daylight
30 Nov - 18:39:08 10° SSE 18:43:42 24° ESE 18:48:21 10° NE visible
30 Nov - 20:24:00 10° SW 20:29:39 49° NW 20:35:28 10° NNE visible
01 Dec - 03:42:00 10° N 03:47:06 25° NE 03:52:16 10° ESE visible
01 Dec - 05:27:40 10° NW 05:33:52 60° WSW 05:40:08 10° SSE visible
01 Dec - 18:47:29 10° S 18:52:46 37° ESE 18:58:11 10° NE visible
01 Dec - 20:33:50 10° WSW 20:39:06 34° NW 20:44:32 10° NNE visible
02 Dec - 03:50:56 10° NNW 03:56:40 35° NE 04:02:26 10° ESE visible
02 Dec - 05:37:14 10° NW 05:43:03 40° WSW 05:48:56 10° S visible
02 Dec - 18:56:13 10° S 19:01:54 58° ESE 19:07:46 10° NE visible
02 Dec - 20:43:58 10° W 20:48:39 24° NW 20:53:27 10° N visible
03 Dec - 02:16:48 10° NNE 02:18:14 11° NE 02:19:39 10° NE visible
03 Dec - 04:00:01 10° NNW 04:06:07 51° ENE 04:12:17 10° SE visible
03 Dec - 05:47:01 10° NW 05:52:09 27° WSW 05:57:20 10° SSW visible
03 Dec - 17:24:26 10° ESE 17:25:47 11° E 17:27:09 10° E visible
03 Dec - 19:05:17 10° SSW 19:11:07 87° ESE 19:17:09 10° NNE visible
03 Dec - 20:54:30 10° W 20:58:18 17° NW 21:02:11 10° N visible
04 Dec - 02:24:34 10° N 02:28:03 15° NE 02:31:32 10° ENE visible
04 Dec - 04:09:11 10° NNW 04:15:29 73° ENE 04:21:52 10° SE visible
04 Dec - 05:57:14 10° WNW 06:01:11 17° WSW 06:05:10 10° SW visible
04 Dec - 17:30:55 10° SE 17:34:44 18° ESE 17:38:36 10° ENE visible
04 Dec - 19:14:39 10° SW 19:20:26 63° WNW 19:26:25 10° NNE visible
04 Dec - 21:05:40 10° WNW 21:08:04 12° NW 21:10:31 10° NNW visible
05 Dec - 02:33:09 10° N 02:37:45 21° NE 02:42:23 10° E visible
05 Dec - 04:18:28 10° NNW 04:24:47 78° WSW 04:31:09 10° SSE visible
05 Dec - 06:09:04 10° W 06:10:09 10° W 06:11:13 10° WSW visible
05 Dec - 17:38:52 10° SSE 17:43:45 28° ESE 17:48:44 10° NE visible
05 Dec - 19:24:17 10° SW 19:29:50 43° NW 19:35:33 10° NNE visible
06 Dec - 02:42:01 10° N 02:47:22 29° NE 02:52:47 10° ESE visible
06 Dec - 04:27:55 10° NW 04:34:00 52° WSW 04:40:10 10° S visible
06 Dec - 17:47:23 10° S 17:52:50 43° ESE 17:58:28 10° NE visible
06 Dec - 19:34:13 10° WSW 19:39:20 30° NW 19:44:35 10° N visible
07 Dec - 02:51:00 10° NNW 02:56:53 40° NE 03:02:50 10° ESE visible
07 Dec - 04:37:31 10° NW 04:43:09 35° WSW 04:48:49 10° S visible
07 Dec - 17:56:14 10° SSW 18:02:01 67° ESE 18:07:59 10° NNE visible
07 Dec - 19:44:29 10° W 19:48:55 21° NW 19:53:27 10° N visible
08 Dec - 01:16:11 10° NNE 01:18:35 12° NE 01:21:00 10° ENE night (unlit)
08 Dec - 03:00:06 10° NNW 03:06:19 58° ENE 03:12:35 10° SE visible
08 Dec - 04:47:25 10° NW 04:52:14 23° WSW 04:57:04 10° SSW visible
08 Dec - 16:23:11 10° SE 16:25:48 13° ESE 16:28:27 10° ENE daylight
08 Dec - 18:05:25 10° SSW 18:11:16 82° WNW 18:17:19 10° NNE visible
08 Dec - 19:55:12 10° WNW 19:58:37 15° NW 20:02:05 10° N visible
09 Dec - 01:24:26 10° N 01:28:22 17° NE 01:32:19 10° E night (unlit)
09 Dec - 03:09:19 10° NNW 03:15:40 83° ENE 03:22:04 10° SSE visible
09 Dec - 04:57:55 10° WNW 05:01:14 15° WSW 05:04:34 10° SW visible
09 Dec - 16:30:30 10° SSE 16:34:47 21° ESE 16:39:08 10° ENE daylight
09 Dec - 18:14:52 10° SW 18:20:37 55° WNW 18:26:32 10° NNE visible
09 Dec - 20:06:47 10° NW 20:08:25 11° NW 20:10:03 10° NNW visible
